Retour au catalogue

CRRES DEB

CANISTER

ActifHEO
NORAD 29531·DEBRIS·🇺🇸 United States

Lancé Jul 25, 1990 depuis Cape Canaveral Space Force Station

Loading…

Prochains Passages (prochaines 24 heures)

TLE

FraisSource: Space-Track

Époque: Sep 14, 2026, 10:52 UTC

1 29531U 90065Y   26257.45336694  .00001100  00000-0  14473-2 0  9995
2 29531  17.9989 340.3171 7064904 230.0154  43.0023  2.51413539184793

Suivez CRRES DEB en temps réel avec AllMySat

Download on the App Store